Temperature
23 21 20 21 27 31 31 31 31 30 30 29 29 29 29 29 29 27 22 22 21 21 21 21 20 19 19 19 20 20 20 19 19 19 19 19 19 19 19 19 19 19 19 19 19 19 19 19 19
22 21 21 26 31 32 31 30 30 30 29 28 28 27 28 28 25 23 22 21 21 21 21 21 21 20 19 20 20 20 20 19 19 19 19 19 19 19 19 19 19 19 19 19 19 19 19 19 19
23 22 25 31 32 31 31 31 30 29 28 28 28 28 28 27 23 22 22 21 21 20 20 22 21 20 20 20 20 20 20 20 19 19 19 19 19 19 19 19 19 19 19 19 19 19 19 19 18
22 24 28 32 32 31 31 31 31 30 29 28 28 28 26 23 22 22 21 21 20 20 20 21 21 21 20 20 20 20 20 20 20 20 20 19 19 19 19 19 19 19 19 19 19 19 19 19 19
23 28 31 32 32 32 32 31 30 31 30 29 28 29 26 22 21 21 21 21 20 20 19 20 21 21 20 20 20 20 20 20 20 20 20 19 19 19 19 19 19 19 19 19 19 19 19 19 18
27 30 31 32 31 31 32 30 31 31 29 28 28 28 26 22 21 21 21 21 21 20 20 19 21 21 20 20 20 20 20 20 20 20 19 19 19 19 19 19 19 19 19 19 19 18 18 18 18
29 31 32 32 31 31 31 30 31 31 30 29 28 29 27 23 22 22 21 21 21 21 20 19 20 21 20 20 20 20 20 20 20 20 20 19 19 19 19 19 19 19 19 19 19 18 18 18 18
28 31 31 32 31 31 31 31 30 31 30 28 27 29 28 24 22 22 21 21 21 21 20 19 19 19 20 20 20 20 20 20 20 19 19 19 19 19 19 19 19 19 18 18 18 18 18 18 18
26 30 31 32 31 31 31 31 30 29 29 27 28 28 26 24 22 21 21 21 20 20 20 20 19 19 19 19 19 20 20 20 19 19 19 19 18 18 18 18 18 19 18 18 18 18 18 18 18
28 30 31 30 31 31 30 30 31 30 30 29 28 27 24 23 22 21 21 21 20 20 19 19 19 19 19 19 19 19 19 19 19 18 18 18 18 18 18 18 19 19 18 18 18 18 18 18 17
29 30 30 30 29 29 30 31 30 31 32 31 30 28 24 23 22 21 21 21 20 20 19 19 19 18 19 18 19 19 18 18 18 18 18 18 18 18 18 18 18 18 18 18 18 18 18 18 18
28 29 28 29 29 29 30 30 31 31 32 31 29 28 25 24 23 22 21 21 20 20 19 19 19 19 19 19 18 18 18 18 19 18 18 18 18 18 18 18 18 18 18 18 18 18 18 17 17
28 29 28 28 29 29 29 30 30 31 31 29 28 27 25 25 24 22 22 21 20 19 19 19 18 19 19 19 19 18 19 19 19 18 18 18 18 18 18 18 18 18 18 18 18 18 18 18 18
28 28 28 29 29 29 30 31 31 31 30 28 27 27 26 25 24 23 22 21 20 19 19 19 19 20 20 19 19 18 19 19 19 19 18 18 18 18 18 18 18 18 18 18 18 18 18 18 18
27 28 30 30 29 30 30 31 31 29 28 28 28 27 26 25 24 23 21 20 20 19 19 19 19 20 20 19 19 18 18 19 19 18 18 18 18 18 18 18 18 18 18 18 18 18 18 18 18
28 29 29 30 30 29 30 31 31 28 28 28 28 26 25 23 23 22 21 20 20 20 19 19 19 19 19 19 19 18 18 19 18 18 18 18 18 18 18 18 18 18 18 18 18 18 18 18 18
28 29 29 29 29 29 30 30 29 27 28 28 26 25 24 23 22 21 20 20 20 19 19 19 19 19 19 19 19 19 19 19 18 18 18 18 18 18 18 18 18 18 18 18 18 18 18 18 18
28 28 28 28 29 28 29 29 28 27 27 26 25 24 23 22 21 20 20 20 20 19 19 19 19 19 20 19 19 19 19 19 18 18 18 18 18 18 18 18 18 18 18 18 18 18 18 18 18
27 27 27 28 28 28 28 28 27 26 26 25 24 23 22 21 20 19 19 19 19 19 19 20 20 19 20 19 19 19 19 19 19 18 18 18 18 18 18 18 18 18 18 18 18 18 17 17 17
27 27 27 27 27 27 27 27 27 25 24 23 22 22 21 21 20 19 19 19 19 19 18 19 19 19 20 20 20 20 19 19 19 18 18 18 18 18 18 18 17 17 17 17 17 17 17 17 17
26 26 26 26 27 27 27 27 27 25 24 23 22 21 21 20 20 20 19 19 18 18 18 18 18 18 19 19 19 19 19 19 18 18 18 18 18 18 18 17 17 17 17 17 17 17 17 16 16
26 26 26 26 26 27 27 26 28 27 25 24 23 22 21 21 20 20 19 19 18 17 17 17 17 18 18 18 18 18 18 18 18 18 18 18 17 17 17 16 16 16 16 16 16 16 16 16 16
26 26 25 25 25 26 27 26 27 26 26 25 24 23 22 21 20 19 19 18 18 17 17 16 17 17 17 17 17 17 17 17 17 17 17 17 16 16 15 15 15 15 15 16 16 16 16 15 15
26 25 26 25 26 25 26 25 26 27 26 25 24 23 22 21 20 20 19 18 18 17 17 16 16 16 16 16 16 16 16 16 16 16 16 16 16 15 15 14 14 14 15 15 16 15 15 15 15
26 25 25 25 25 26 25 24 26 25 24 24 24 23 22 21 20 20 19 18 18 17 17 16 16 16 16 16 16 16 16 16 16 15 15 15 15 15 15 15 14 14 15 15 15 15 15 14 15
25 24 23 22 23 24 25 24 26 24 24 23 22 22 21 21 20 19 18 18 17 17 16 16 15 15 15 15 15 15 15 15 15 15 15 15 15 15 15 14 14 14 14 14 14 14 14 14 14
25 25 24 23 23 23 24 25 25 24 23 23 22 22 21 21 20 19 18 17 17 16 16 15 15 15 15 15 15 15 15 14 14 14 14 14 14 14 14 14 14 14 14 14 14 14 14 14 14
25 25 24 23 22 22 24 24 24 24 24 24 23 22 22 21 20 19 18 17 16 15 15 15 14 14 14 14 14 14 14 14 14 13 13 13 13 13 13 13 13 13 13 13 14 13 13 13 13
24 23 23 23 22 21 22 24 25 24 24 23 23 22 21 20 20 18 17 16 15 15 14 14 14 14 14 14 13 13 13 13 13 13 13 13 13 13 13 13 13 13 13 12 12 13 13 13 13
24 24 23 22 22 22 22 23 25 24 24 23 22 22 21 19 18 17 17 16 15 14 14 14 13 13 13 13 13 12 12 12 12 12 12 12 12 12 12 12 12 12 12 12 12 12 12 12 12
Wind_Speed
9 7 6 5 6 3 5 4 3 2 3 2 5 3 2 2 2 3 5 17 18 19 21 22 20 18 17 17 17 18 18 17 17 15 15 14 12 11 10 9 7 7 6 6 6 6 7 7 7
4 5 5 6 5 2 6 3 1 2 3 3 4 3 2 1 2 5 10 17 19 20 21 21 21 19 18 17 17 17 17 16 15 14 14 13 12 11 10 9 8 7 6 5 4 4 5 5 5
4 7 5 5 3 6 6 3 3 5 4 2 2 2 3 2 3 6 12 19 18 18 19 20 22 20 18 17 17 16 16 15 14 13 12 12 12 11 10 9 8 7 6 5 4 3 3 3 4
4 5 5 5 4 7 4 2 4 5 2 1 2 1 2 4 2 9 17 19 18 17 18 21 21 20 18 17 16 16 15 14 13 12 11 11 10 10 10 9 8 7 6 5 5 5 3 3 2
5 5 6 2 4 5 3 1 5 3 1 0 2 2 2 4 6 13 18 18 18 17 17 21 21 19 18 17 16 15 14 13 12 11 11 10 10 9 9 9 8 7 6 5 5 5 5 5 4
5 5 7 2 3 4 4 1 5 4 1 1 2 1 4 6 10 16 17 17 17 17 17 20 20 19 18 17 16 15 14 13 12 11 11 10 10 9 8 8 8 7 7 7 6 6 6 6 6
7 7 7 3 1 3 5 1 6 4 4 2 1 1 4 10 13 15 15 15 16 17 16 17 20 19 18 17 16 16 15 14 13 12 12 11 10 9 9 9 9 9 8 8 8 8 7 8 8
5 6 8 5 3 2 5 2 3 6 4 2 4 3 2 13 14 14 15 15 15 16 16 15 17 18 18 18 18 16 15 14 13 12 12 11 11 11 10 11 12 10 9 9 9 10 10 10 11
4 8 9 4 2 1 5 4 1 3 4 4 5 3 4 16 17 16 15 15 15 15 14 15 15 15 16 16 17 17 15 15 14 14 13 12 13 13 13 13 8 9 10 11 11 12 12 12 15
6 11 6 1 2 4 6 6 3 5 8 7 7 5 5 17 18 18 17 17 17 16 16 14 14 14 14 13 13 14 15 15 15 13 13 13 12 10 10 5 7 10 12 12 14 14 14 15 13
6 8 4 4 4 6 7 6 4 7 9 8 7 7 11 18 19 19 18 17 17 16 16 14 13 12 13 10 10 11 11 11 14 15 13 12 10 9 10 8 9 12 13 12 11 13 11 10 8
6 6 6 7 7 8 9 8 6 8 8 3 3 5 14 19 20 19 18 17 16 16 16 14 13 11 12 11 10 10 9 9 10 12 13 12 8 8 8 7 8 8 8 8 9 8 9 10 11
6 6 6 8 10 10 10 9 7 8 7 3 4 7 14 17 18 17 15 15 15 15 15 14 12 11 10 10 9 10 10 10 11 10 11 12 9 9 8 8 8 10 9 8 8 9 8 9 10
3 7 9 9 9 6 7 8 7 5 6 4 6 9 12 14 15 14 14 13 13 14 14 13 13 12 11 10 10 9 11 11 12 11 13 14 13 10 9 9 9 10 10 10 9 9 9 9 8
6 8 9 6 5 3 6 12 6 8 7 6 7 8 8 8 10 11 12 12 13 13 14 14 14 13 13 13 13 11 12 12 12 12 13 14 15 13 11 11 10 11 11 11 10 10 10 10 9
6 8 7 3 2 2 7 14 2 10 7 6 5 4 3 4 7 8 9 10 11 12 12 13 12 13 14 13 12 11 12 12 11 12 13 15 17 16 13 12 12 11 11 10 9 10 10 10 9
8 6 5 3 1 2 6 8 6 9 6 3 3 2 1 3 4 5 7 9 10 11 11 11 12 12 13 13 12 12 11 11 12 13 13 14 17 18 15 13 12 12 10 10 10 10 10 10 10
3 4 5 5 2 4 5 5 5 8 6 5 3 3 1 2 2 3 6 8 9 10 11 11 12 13 12 11 11 11 12 12 13 13 14 16 16 17 15 13 14 12 11 10 9 10 9 10 10
1 3 4 2 3 6 7 7 4 6 5 5 5 4 3 2 2 1 2 4 7 9 11 12 13 12 12 10 11 11 12 12 12 13 15 16 16 16 12 13 12 11 10 11 10 9 11 11 9
2 3 3 3 3 7 10 11 4 1 3 5 5 4 4 2 1 1 2 3 5 6 8 10 11 12 12 11 10 10 11 11 12 11 11 12 14 14 11 12 10 10 9 10 10 9 10 10 8
3 5 7 10 11 11 12 14 10 6 3 3 4 5 5 5 5 4 4 4 5 6 7 8 9 10 11 11 10 10 10 10 10 11 9 10 11 12 8 8 8 9 9 9 8 8 9 9 9
7 4 9 12 15 14 11 14 12 8 6 4 4 5 6 7 7 8 8 7 7 7 7 8 8 9 10 11 12 14 12 13 13 9 8 8 8 9 8 7 6 8 8 7 7 6 6 7 8
8 7 11 14 15 17 15 14 10 8 8 4 4 6 6 7 8 9 9 9 9 8 8 7 8 8 8 9 10 11 12 11 8 6 6 5 4 4 5 5 6 7 6 6 5 4 5 5 6
6 10 13 12 12 14 9 10 9 4 4 3 2 4 6 8 9 10 10 10 9 9 9 9 9 9 9 9 10 10 11 9 8 6 5 4 3 4 4 4 5 6 6 5 5 4 5 4 4
7 11 8 6 7 5 2 8 5 4 3 1 1 3 6 8 10 11 12 13 12 12 11 11 11 12 11 11 11 11 11 10 10 8 8 7 6 5 6 6 6 6 6 6 5 5 4 4 3
6 7 7 7 9 12 10 8 3 2 3 3 4 6 8 10 11 12 13 13 13 13 13 12 12 13 13 11 11 10 10 9 7 8 7 7 6 6 7 7 7 8 8 7 5 5 5 3 3
6 5 7 10 13 12 7 6 6 5 6 7 7 8 10 12 13 13 13 13 13 13 13 12 12 12 12 12 10 9 8 7 6 5 6 6 6 6 7 7 7 7 6 6 6 4 4 4 3
5 7 5 6 7 11 11 11 7 5 7 7 8 10 11 12 12 12 12 12 12 12 11 10 9 9 10 9 7 5 4 4 4 4 5 6 7 6 7 6 6 6 5 5 4 5 3 3 1
6 7 7 8 8 9 12 9 4 6 9 9 11 11 11 12 11 11 11 11 11 10 8 6 5 6 7 6 5 2 1 1 1 2 4 6 6 6 6 6 6 5 5 5 4 3 4 2 2
11 11 10 10 12 14 16 15 8 8 11 12 15 14 12 11 10 10 11 10 9 8 6 4 3 4 5 6 5 4 4 2 1 1 2 4 6 6 5 5 5 5 5 4 5 4 4 5 5
Wind_Direction
191 205 222 231 244 234 50 57 51 93 121 126 158 180 264 270 299 39 116 152 148 149 150 158 161 160 155 147 141 139 140 142 145 146 148 151 152 152 149 147 145 139 129 122 118 116 114 117 123
214 217 230 245 279 48 76 60 84 56 70 131 164 202 269 243 51 102 142 150 152 152 154 161 161 163 159 154 150 146 145 146 148 150 153 156 157 156 154 151 149 146 140 132 122 122 126 130 140
228 234 265 271 335 34 56 72 99 105 123 166 176 251 316 16 117 145 149 153 155 152 155 157 163 166 164 160 157 154 152 152 153 155 158 162 164 166 163 159 157 157 155 153 148 138 142 156 177
235 240 252 269 42 48 32 89 140 136 126 157 257 258 59 39 130 149 147 156 156 156 161 159 168 169 168 166 164 161 159 160 161 163 166 168 169 171 172 170 169 170 172 177 178 171 176 191 198
246 268 261 235 63 43 31 108 173 175 59 20 258 323 80 91 124 142 152 159 162 163 165 162 172 172 172 172 172 170 167 167 169 172 174 175 176 176 176 178 180 185 188 190 187 188 193 203 212
247 255 257 220 82 56 43 138 204 222 249 264 262 301 109 125 144 151 156 164 166 166 168 162 174 178 178 179 180 179 178 179 181 182 183 185 185 185 188 192 197 200 200 199 199 206 212 219 226
269 265 264 250 149 97 31 325 226 230 245 251 233 252 129 156 157 160 162 169 171 171 170 166 177 183 186 187 188 188 189 191 194 194 194 195 198 202 204 207 213 216 216 215 213 215 224 234 237
272 265 248 227 206 111 24 327 246 238 233 177 197 244 145 168 164 167 167 174 178 177 177 174 180 183 189 192 194 196 197 200 204 207 208 206 210 215 218 222 216 226 234 234 232 229 231 237 243
247 251 243 223 215 77 11 341 204 227 184 198 216 244 54 158 166 172 176 180 182 184 184 184 183 184 192 195 189 196 202 207 212 216 217 221 226 222 213 225 202 228 243 246 247 245 243 244 241
234 245 244 352 310 330 340 324 294 214 211 220 222 195 149 160 171 181 184 185 185 188 190 189 192 185 194 197 186 201 208 208 217 225 218 222 232 243 246 176 213 242 250 254 251 252 253 247 251
237 255 278 258 286 314 312 311 279 250 234 232 234 206 175 174 181 188 191 192 189 190 193 192 196 191 198 201 200 207 214 213 217 225 227 234 242 237 240 238 221 229 237 248 240 239 249 255 258
245 252 270 279 293 297 303 305 287 258 265 318 277 214 183 186 190 193 194 195 191 194 196 196 194 196 204 209 211 217 222 221 226 217 224 229 233 246 249 248 252 248 242 244 259 259 262 266 270
240 265 267 270 276 286 286 277 284 268 283 302 270 204 195 196 195 196 197 197 196 198 198 198 198 203 207 214 226 224 229 230 228 234 224 236 240 241 243 246 251 257 257 250 245 256 268 272 269
285 282 270 268 271 263 263 264 256 286 333 296 251 228 214 206 199 194 196 198 200 203 203 200 200 207 212 216 226 233 236 231 242 233 232 228 238 242 245 243 242 249 253 258 265 266 267 267 271
274 273 260 237 249 236 260 249 239 339 324 289 260 248 237 214 201 199 199 202 204 205 205 204 205 207 212 221 227 233 240 240 238 238 235 231 235 235 239 247 247 248 250 250 252 259 261 263 262
251 249 242 167 235 215 251 247 92 348 319 295 288 274 250 211 211 206 206 206 211 210 205 208 212 211 213 220 230 238 242 247 246 244 240 233 237 237 238 245 248 249 252 254 252 256 262 263 266
223 238 244 208 137 287 260 263 359 352 345 329 333 324 265 184 207 213 215 213 216 217 215 214 218 220 219 220 225 236 242 248 251 248 246 239 236 237 237 245 250 255 254 255 259 257 262 269 271
227 252 242 252 2 303 274 285 340 360 15 27 33 33 73 180 184 209 221 227 221 221 219 222 221 222 224 224 226 234 239 241 241 243 244 245 243 243 245 246 247 251 255 257 258 264 262 268 273
275 267 270 289 336 299 283 286 319 354 13 29 37 45 49 87 125 187 229 232 225 222 222 222 226 223 223 228 231 233 239 241 242 242 244 248 254 256 253 254 254 251 250 253 255 258 264 266 273
226 259 281 255 298 297 288 280 256 352 20 22 27 35 35 21 316 283 271 255 248 241 238 236 232 232 228 230 233 240 246 249 247 249 250 254 258 258 254 251 253 253 251 250 255 257 271 276 269
262 301 309 304 300 270 273 268 225 183 153 95 71 61 52 38 18 2 340 314 289 277 270 267 267 261 251 250 247 248 248 250 247 244 244 247 255 257 244 242 248 250 250 248 250 257 259 268 269
286 306 297 292 289 287 280 284 262 198 183 142 94 75 61 46 31 20 10 2 348 329 310 297 288 278 271 264 259 257 252 252 252 249 245 239 236 237 229 207 218 243 245 239 238 241 254 259 266
314 314 289 284 281 280 270 268 275 186 211 157 96 70 48 30 14 3 356 351 347 341 333 321 309 298 290 282 274 267 260 257 255 248 239 237 228 218 211 191 188 220 234 229 230 228 247 253 267
310 294 275 258 262 264 275 277 274 212 214 166 107 49 19 3 352 345 340 337 336 334 330 324 314 304 294 283 275 263 258 251 241 224 204 190 177 171 167 170 188 215 221 212 214 220 223 248 266
309 322 305 272 253 283 23 284 281 79 155 189 335 343 337 332 328 325 325 325 324 323 323 319 311 303 296 283 271 261 253 248 236 217 195 181 176 176 170 169 192 208 209 207 210 214 225 223 244
330 320 325 310 304 308 294 271 293 154 204 234 271 294 306 310 310 309 311 312 312 313 314 312 307 303 298 285 271 261 252 244 235 218 206 192 182 171 165 174 192 200 198 199 205 212 207 210 232
302 310 327 292 285 284 276 272 273 203 228 242 265 283 295 305 308 304 305 307 307 308 310 312 310 305 300 286 271 258 248 242 228 207 197 181 162 158 165 176 189 193 192 195 208 210 208 210 232
288 311 292 296 301 296 288 283 277 220 248 269 283 296 303 308 309 309 308 307 308 308 310 315 319 317 312 299 279 264 242 237 217 190 167 152 145 152 161 171 178 179 177 183 211 198 193 207 191
253 254 270 288 287 286 291 296 339 275 287 284 298 302 300 303 309 310 309 307 304 302 305 316 333 349 353 349 341 317 320 294 198 161 154 147 145 155 163 166 169 170 169 175 193 190 177 172 123
271 269 267 276 282 271 275 284 297 280 278 283 295 300 298 296 298 302 306 305 300 296 297 298 335 22 24 30 39 42 32 11 14 45 161 159 152 156 157 159 161 164 161 164 168 154 129 103 87
Height
1522 1522 1523 1525 1517 1502 1503 1503 1503 1505 1505 1508 1511 1512 1512 1513 1515 1521 1524 1524 1527 1530 1532 1534 1537 1540 1543 1545 1547 1550 1551 1553 1555 1556 1558 1559 1561 1562 1563 1564 1565 1566 1566 1567 1567 1568 1568 1568 1569
1524 1523 1525 1521 1505 1503 1508 1505 1505 1506 1509 1511 1513 1515 1515 1515 1519 1522 1522 1525 1527 1530 1532 1535 1537 1540 1543 1546 1548 1550 1552 1554 1555 1557 1558 1559 1560 1561 1562 1563 1564 1565 1566 1566 1567 1567 1568 1568 1569
1524 1524 1524 1511 1503 1506 1509 1505 1506 1509 1512 1513 1514 1516 1516 1517 1520 1521 1523 1525 1529 1532 1534 1536 1538 1541 1544 1546 1548 1550 1552 1554 1556 1557 1558 1559 1560 1561 1561 1562 1563 1563 1564 1565 1566 1567 1567 1568 1568
1526 1526 1521 1508 1505 1505 1506 1505 1508 1510 1513 1515 1515 1515 1518 1520 1521 1521 1522 1526 1530 1532 1535 1537 1540 1542 1544 1547 1549 1551 1553 1555 1556 1557 1558 1559 1559 1560 1561 1561 1562 1563 1563 1564 1565 1566 1566 1567 1567
1526 1523 1512 1505 1505 1505 1505 1507 1509 1509 1512 1514 1515 1515 1518 1521 1520 1522 1524 1527 1531 1534 1536 1537 1540 1543 1545 1548 1550 1552 1554 1555 1557 1558 1558 1559 1559 1560 1560 1561 1562 1562 1563 1563 1564 1564 1565 1565 1566
1526 1518 1511 1507 1508 1507 1506 1508 1509 1509 1513 1515 1515 1515 1519 1522 1522 1524 1526 1529 1532 1535 1538 1538 1540 1543 1545 1548 1550 1552 1554 1555 1556 1557 1558 1559 1560 1560 1561 1561 1561 1562 1562 1562 1563 1563 1564 1564 1564
1524 1514 1508 1507 1509 1508 1510 1510 1508 1509 1512 1513 1515 1515 1518 1522 1524 1525 1527 1530 1533 1536 1538 1538 1540 1542 1545 1547 1549 1552 1553 1555 1556 1557 1558 1559 1560 1560 1560 1561 1561 1561 1561 1561 1561 1561 1562 1562 1562
1524 1516 1508 1506 1509 1509 1510 1509 1509 1509 1511 1514 1515 1515 1516 1521 1523 1526 1528 1530 1533 1535 1537 1538 1541 1543 1544 1546 1548 1551 1553 1555 1556 1557 1558 1558 1559 1559 1559 1560 1560 1560 1560 1560 1560 1559 1559 1560 1560
1525 1518 1509 1506 1508 1508 1510 1509 1509 1511 1512 1514 1514 1516 1517 1519 1521 1525 1527 1529 1531 1534 1537 1539 1541 1542 1544 1547 1548 1550 1552 1553 1555 1556 1556 1557 1558 1559 1559 1559 1558 1559 1558 1558 1558 1557 1557 1557 1557
1522 1515 1508 1511 1511 1510 1512 1511 1508 1508 1509 1512 1513 1515 1515 1517 1519 1522 1524 1527 1529 1532 1535 1537 1540 1541 1544 1547 1548 1549 1551 1552 1553 1555 1556 1556 1557 1558 1558 1557 1556 1556 1556 1556 1556 1555 1555 1554 1555
1518 1514 1513 1513 1514 1514 1511 1509 1508 1506 1503 1506 1509 1512 1514 1516 1517 1519 1522 1525 1528 1530 1533 1536 1538 1539 1542 1545 1548 1550 1551 1552 1552 1553 1553 1554 1555 1555 1556 1556 1555 1554 1554 1554 1554 1553 1554 1554 1553
1519 1517 1518 1515 1514 1513 1512 1509 1507 1506 1504 1505 1508 1510 1511 1513 1514 1517 1520 1523 1526 1529 1532 1534 1536 1537 1540 1544 1546 1548 1550 1550 1551 1551 1551 1553 1552 1553 1553 1553 1554 1553 1553 1552 1552 1551 1551 1551 1550
1518 1516 1516 1515 1513 1512 1512 1508 1508 1505 1505 1506 1507 1508 1509 1511 1514 1517 1520 1523 1525 1527 1530 1532 1534 1536 1538 1540 1543 1546 1547 1549 1549 1549 1549 1549 1550 1551 1551 1550 1550 1550 1551 1550 1549 1548 1548 1547 1547
1518 1517 1514 1512 1511 1510 1509 1506 1506 1504 1506 1506 1507 1507 1508 1510 1513 1516 1519 1522 1524 1526 1529 1531 1531 1533 1535 1537 1539 1542 1544 1544 1546 1546 1546 1545 1547 1547 1547 1547 1546 1547 1547 1547 1546 1546 1545 1544 1543
1518 1514 1508 1507 1508 1507 1508 1504 1502 1506 1505 1505 1505 1506 1508 1510 1513 1516 1518 1520 1522 1524 1526 1527 1529 1530 1532 1534 1536 1538 1540 1541 1541 1542 1541 1541 1542 1543 1543 1544 1544 1544 1544 1543 1542 1542 1541 1540 1539
1513 1510 1507 1503 1506 1506 1508 1501 1499 1505 1503 1503 1504 1506 1508 1510 1512 1515 1517 1518 1520 1522 1523 1525 1527 1528 1529 1530 1532 1534 1536 1537 1537 1538 1538 1537 1538 1539 1539 1540 1540 1540 1539 1539 1539 1538 1537 1537 1535
1509 1508 1507 1505 1505 1505 1503 1500 1502 1505 1503 1502 1504 1505 1507 1509 1511 1513 1515 1516 1518 1519 1521 1522 1523 1525 1526 1527 1528 1529 1530 1531 1532 1533 1534 1534 1533 1534 1534 1535 1535 1535 1535 1534 1534 1534 1533 1532 1531
1511 1509 1510 1508 1505 1505 1504 1503 1504 1505 1503 1502 1504 1505 1507 1508 1510 1511 1512 1514 1515 1516 1517 1518 1520 1520 1522 1523 1523 1524 1525 1525 1525 1526 1527 1528 1529 1529 1530 1530 1530 1530 1529 1529 1528 1528 1527 1526 1525
1514 1513 1512 1509 1508 1507 1505 1504 1504 1505 1504 1503 1504 1506 1507 1508 1509 1509 1510 1511 1512 1513 1514 1514 1516 1516 1516 1517 1518 1518 1519 1519 1520 1520 1521 1522 1523 1524 1525 1525 1525 1524 1524 1524 1524 1523 1523 1522 1521
1513 1514 1512 1509 1507 1507 1505 1502 1502 1506 1506 1506 1506 1507 1507 1508 1508 1509 1509 1509 1510 1510 1511 1511 1511 1511 1511 1511 1510 1511 1512 1512 1513 1514 1514 1515 1516 1517 1518 1518 1518 1519 1518 1518 1518 1518 1518 1518 1517
1515 1515 1515 1514 1507 1502 1504 1500 1497 1502 1505 1506 1507 1507 1507 1508 1508 1508 1508 1508 1508 1508 1507 1507 1506 1506 1505 1505 1504 1504 1503 1504 1504 1505 1506 1506 1507 1508 1508 1508 1510 1511 1512 1512 1512 1513 1512 1512 1512
1515 1512 1514 1513 1511 1505 1500 1506 1491 1493 1499 1503 1505 1506 1507 1507 1508 1507 1507 1506 1506 1505 1504 1502 1501 1500 1499 1498 1498 1498 1497 1497 1497 1498 1498 1497 1497 1498 1496 1494 1497 1502 1505 1506 1507 1508 1507 1507 1507
1513 1514 1513 1509 1508 1506 1497 1501 1489 1490 1495 1499 1504 1506 1506 1507 1507 1506 1505 1504 1503 1501 1500 1498 1496 1495 1493 1492 1492 1491 1491 1491 1491 1490 1490 1490 1488 1488 1486 1484 1486 1493 1498 1500 1502 1503 1503 1503 1503
1514 1512 1507 1505 1503 1509 1498 1502 1495 1486 1493 1498 1502 1505 1506 1506 1506 1505 1504 1502 1500 1498 1496 1494 1492 1490 1489 1487 1486 1485 1485 1485 1485 1484 1483 1483 1482 1481 1481 1480 1484 1490 1494 1497 1498 1499 1499 1499 1498
1513 1516 1515 1511 1506 1502 1498 1504 1494 1494 1496 1500 1502 1504 1505 1505 1505 1504 1502 1500 1498 1496 1493 1491 1488 1486 1485 1483 1481 1480 1480 1480 1479 1479 1479 1479 1479 1480 1480 1480 1484 1488 1492 1494 1495 1495 1496 1495 1494
1515 1518 1527 1532 1522 1509 1499 1502 1491 1495 1498 1501 1503 1503 1504 1504 1503 1502 1500 1498 1495 1493 1491 1488 1485 1483 1481 1479 1477 1476 1475 1475 1475 1475 1475 1476 1476 1477 1479 1480 1483 1487 1490 1491 1492 1493 1493 1492 1492
1514 1513 1514 1521 1516 1516 1502 1495 1491 1495 1497 1499 1500 1501 1501 1501 1500 1499 1497 1495 1493 1490 1488 1485 1482 1479 1477 1475 1473 1472 1471 1471 1471 1471 1472 1473 1474 1475 1477 1480 1483 1485 1487 1488 1489 1490 1489 1489 1490
1515 1512 1516 1519 1525 1520 1505 1496 1493 1492 1493 1493 1495 1496 1497 1497 1496 1495 1494 1491 1489 1486 1484 1481 1478 1476 1473 1471 1469 1468 1468 1468 1468 1469 1470 1471 1472 1474 1476 1479 1481 1483 1485 1485 1486 1488 1487 1487 1487
1514 1515 1515 1513 1517 1523 1516 1501 1486 1490 1491 1492 1492 1492 1493 1493 1492 1491 1489 1487 1485 1483 1481 1478 1476 1473 1470 1468 1466 1466 1466 1466 1466 1467 1469 1470 1471 1474 1476 1478 1480 1482 1483 1484 1485 1487 1486 1486 1486
1508 1509 1511 1520 1517 1510 1510 1501 1482 1488 1489 1489 1490 1490 1490 1490 1488 1487 1485 1483 1481 1480 1478 1476 1474 1471 1468 1466 1463 1463 1464 1465 1466 1467 1469 1470 1471 1474 1476 1478 1480 1481 1483 1483 1484 1485 1485 1485 1485